Baker City, OR

12:54 AM PDT on August 31, 2016 (GMT -0700)
Baker City Municipal

Weather History for KBKE - January, 2014

Change the Weather History Date:

Thursday, January 9, 2014

  Actual Average Record
Temperature  
Mean Temperature 29 °F 24 °F  
Max Temperature 38 °F 33 °F 55 °F (1953)
Min Temperature 19 °F 16 °F -20 °F (1974)
Degree Days  
Heating Degree Days 36 41  
Month to date heating degree days 373 369  
Since 1 July heating degree days 3699 3654  
Cooling Degree Days 0 0  
Month to date cooling degree days 0 0  
Year to date cooling degree days 0 0  
Moisture  
Dew Point 27 °F    
Average Humidity 80    
Maximum Humidity 100    
Minimum Humidity 59    
Precipitation  
Precipitation 0.01 in 0.03 in 0.41 in (1989)
Month to date precipitation 0.24 0.26  
Year to date precipitation 0.24 0.26  
Sea Level Pressure  
Sea Level Pressure 29.93 in    
Wind  
Wind Speed 7 mph (ENE)    
Max Wind Speed 21 mph    
Max Gust Speed 25 mph    
Visibility 5 miles    
Events Fog , Snow    
T = Trace of Precipitation, MM = Missing Value Source: NWS Daily Summary

Daily Weather History Graph

Daily Weather History Graph

Search for Another Location

Airport or City:

Trip Planner

Search our weather history database for the weather conditions in past years. The results will help you decide how hot, cold, wet, or windy it might be!

Date:

Astronomy

Jan. 09, 2014 Rise Set
Actual Time 7:27 AM PST 4:29 PM PST
Civil Twilight 6:54 AM PST 5:02 PM PST
Nautical Twilight 6:18 AM PST 5:39 PM PST
Astronomical Twilight 5:42 AM PST 6:14 PM PST
Moon 12:04 PM PST (1/9) 1:34 AM PST (1/9)
Length of Visible Light 10h 07m
Length of Day
9h 01m
Waxing Gibbous, 67% of the Moon is Illuminated
Jan 9
Waxing Gibbous
Jan 15
Full
Jan 23
Last Quarter
Jan 30
New
Feb 6
First Quarter

Hourly Weather History & Observations

Time (PST) Temp. Windchill Dew Point Humidity Pressure Visibility Wind Dir Wind Speed Gust Speed Precip Events Conditions
12:05 AM 32.0 °F 25.6 °F 32.0 °F 100% 29.84 in 7.0 mi North 6.9 mph - 0.00 in   Overcast
12:09 AM 32.0 °F 26.4 °F 30.9 °F 96% 29.84 in 1.8 mi NNE 5.8 mph - 0.00 in   Overcast
12:17 AM 30.9 °F 23.5 °F 30.9 °F 100% 29.83 in 0.2 mi NNE 8.1 mph - 0.00 in Fog Light Freezing Fog
12:23 AM 30.9 °F 24.3 °F 30.9 °F 100% 29.83 in 0.5 mi NE 6.9 mph - 0.00 in Fog Light Freezing Fog
12:28 AM 30.9 °F 26.2 °F 30.9 °F 100% 29.83 in 1.0 mi ENE 4.6 mph - 0.00 in   Overcast
12:33 AM 30.9 °F 26.2 °F 30.9 °F 100% 29.82 in 3.0 mi East 4.6 mph - 0.00 in   Overcast
12:53 AM 30.9 °F 24.3 °F 30.0 °F 96% 29.90 in 3.0 mi NNE 6.9 mph - 0.00 in   Overcast
1:10 AM 30.0 °F 24.1 °F 28.9 °F 96% 29.83 in 1.8 mi NE 5.8 mph - N/A   Mostly Cloudy
1:20 AM 30.0 °F 24.1 °F 28.9 °F 96% 29.84 in 1.0 mi NE 5.8 mph - N/A   Mist
1:23 AM 30.0 °F 25.2 °F 30.0 °F 100% 29.83 in 1.5 mi ENE 4.6 mph - N/A   Mostly Cloudy
1:26 AM 30.0 °F 23.2 °F 30.0 °F 100% 29.83 in 3.0 mi ENE 6.9 mph - N/A   Mostly Cloudy
1:33 AM 28.9 °F 20.4 °F 28.9 °F 100% 29.82 in 4.0 mi NE 9.2 mph - N/A   Mostly Cloudy
1:49 AM 28.4 °F 24.6 °F 28.4 °F 100% 29.84 in 5.0 mi East 3.5 mph - N/A   Mostly Cloudy
1:53 AM 28.0 °F - 28.0 °F 100% 29.92 in 5.0 mi Calm Calm - N/A   Mostly Cloudy
2:04 AM 28.9 °F - 27.0 °F 92% 29.86 in 5.0 mi Calm Calm - N/A   Mostly Cloudy
2:10 AM 28.9 °F 25.2 °F 28.9 °F 100% 29.86 in 5.0 mi NW 3.5 mph - N/A   Overcast
2:39 AM 30.0 °F 25.2 °F 28.9 °F 96% 29.88 in 4.0 mi WNW 4.6 mph - 0.00 in   Overcast
2:49 AM 30.2 °F 25.4 °F 30.2 °F 100% 29.88 in 1.8 mi West 4.6 mph - 0.00 in Snow Light Snow
2:53 AM 30.9 °F - 30.0 °F 96% 29.95 in 1.2 mi Calm Calm - 0.01 in Snow Light Snow
3:19 AM 30.0 °F 24.1 °F 28.9 °F 96% 29.89 in 3.0 mi SW 5.8 mph - 0.00 in Snow Light Snow
3:32 AM 28.9 °F 21.9 °F 28.9 °F 100% 29.88 in 4.0 mi South 6.9 mph - 0.00 in   Mostly Cloudy
3:46 AM 28.0 °F 22.8 °F 28.0 °F 100% 29.88 in 4.0 mi SSE 4.6 mph - 0.00 in   Mostly Cloudy
3:53 AM 27.0 °F 18.7 °F 27.0 °F 100% 29.96 in 4.0 mi SSE 8.1 mph - 0.00 in   Mostly Cloudy
4:53 AM 25.0 °F 19.3 °F 24.1 °F 96% 29.97 in 5.0 mi West 4.6 mph - N/A   Mostly Cloudy
5:35 AM 23.0 °F 15.8 °F 21.9 °F 96% 29.90 in 2.0 mi NE 5.8 mph - N/A   Partly Cloudy
5:38 AM 21.9 °F 14.5 °F 21.9 °F 100% 29.90 in 1.0 mi NNE 5.8 mph - N/A   Mist
5:40 AM 21.9 °F 14.5 °F 21.0 °F 96% 29.90 in 0.8 mi NNE 5.8 mph - N/A   Partly Cloudy
5:51 AM 21.2 °F 13.6 °F 19.4 °F 93% 29.90 in 0.2 mi ENE 5.8 mph - N/A Fog Light Freezing Fog
5:53 AM 21.0 °F 13.4 °F 19.9 °F 96% 30.00 in 0.2 mi NE 5.8 mph - N/A Fog Light Freezing Fog
6:29 AM 23.0 °F 18.4 °F 21.0 °F 92% 29.91 in 1.0 mi Variable 3.5 mph - N/A   Scattered Clouds
6:38 AM 24.1 °F 19.7 °F 21.9 °F 91% 29.91 in 10.0 mi North 3.5 mph - N/A   Mostly Cloudy
6:53 AM 21.9 °F 12.5 °F 19.0 °F 89% 30.01 in 10.0 mi North 8.1 mph - N/A   Partly Cloudy
7:53 AM 30.9 °F - 21.9 °F 69% 30.03 in 10.0 mi Calm Calm - N/A   Overcast
8:53 AM 32.0 °F 24.2 °F 24.1 °F 73% 30.06 in 10.0 mi WNW 9.2 mph - N/A   Overcast
9:53 AM 35.1 °F 27.4 °F 24.1 °F 64% 30.07 in 10.0 mi NNW 10.4 mph - N/A   Mostly Cloudy
10:53 AM 36.0 °F - 23.0 °F 59% 30.07 in 10.0 mi Calm Calm - N/A   Partly Cloudy
11:53 AM 35.1 °F 30.1 °F 24.1 °F 64% 30.05 in 10.0 mi SE 5.8 mph - N/A   Clear
12:53 PM 37.0 °F 33.3 °F 24.1 °F 59% 30.03 in 10.0 mi SE 4.6 mph - N/A   Partly Cloudy
1:53 PM 37.0 °F 31.6 °F 25.0 °F 62% 30.04 in 10.0 mi East 6.9 mph - N/A   Clear
3:53 PM 36.0 °F 32.1 °F 26.1 °F 67% 30.02 in 10.0 mi ESE 4.6 mph - N/A   Overcast
4:53 PM 34.0 °F 24.6 °F 28.0 °F 79% 30.02 in 10.0 mi South 13.8 mph - N/A   Overcast
5:53 PM 33.1 °F 22.2 °F 30.0 °F 89% 30.02 in 10.0 mi SSE 17.3 mph - N/A   Overcast
6:53 PM 33.1 °F 22.2 °F 28.9 °F 85% 29.99 in 10.0 mi SSE 17.3 mph - N/A   Overcast
7:53 PM 33.1 °F 24.4 °F 28.9 °F 85% 29.97 in 10.0 mi ESE 11.5 mph - N/A   Overcast
8:53 PM 32.0 °F 24.2 °F 28.9 °F 88% 29.97 in 10.0 mi East 9.2 mph - N/A   Overcast
9:53 PM 33.1 °F 28.7 °F 28.0 °F 82% 29.95 in 10.0 mi ESE 4.6 mph - N/A   Overcast
10:53 PM 32.0 °F 25.6 °F 28.0 °F 85% 29.94 in 10.0 mi ENE 6.9 mph - N/A   Overcast
11:53 PM 28.9 °F 25.2 °F 27.0 °F 92% 29.96 in 10.0 mi WSW 3.5 mph - N/A   Mostly Cloudy